User: anonymous   Login
Location: Moonridge Observatory
(39.2268°N, 77.7914°W)
Time: 11:07:55
(UTC-05:00)
Language:

CZ-2C R/B - Orbit

View from above orbital plane
View from above orbital plane
View from above satellite
View from above satellite

Ground track
Ground track

The orbit data is extracted from the following two-line orbital elements,

1 28480U 04046B   14328.00902714  .00000222  00000-0  99265-4 0  4937
2 28480 098.1107 111.8813 0143726 109.2292 000.1104 14.25391754520858
Epoch (UTC): 24 November 2014 00:12:59
Eccentricity: 0.0143726
inclination: 98.1107°
perigee height: 704 km
apogee height: 910 km
right ascension of ascending node: 111.8813°
argument of perigee: 109.2292°
revolutions per day: 14.25391754
mean anomaly at epoch: 0.1104°
orbit number at epoch: 52085

The dashed part of the orbit path shows where the satellite is in the earth's shadow,  

DLR